Vorticity
8 8 5 3 3 4 4 3 1 5 4 27 24 19 5 11 2 2 4 10 13 11 7 13 21 6 12 11 10 3 20 2 2 10 10 3 4 -1 3 -5 3 13 4 9
15 5 4 3 3 3 5 4 3 5 17 25 13 10 8 9 10 8 13 8 3 12 17 19 26 10 16 13 14 2 10 7 13 26 24 20 20 17 15 7 23 0 -7 -21
4 3 3 3 3 5 5 7 9 18 38 19 14 13 15 22 13 7 4 -5 -1 13 10 4 -7 -8 3 -2 3 20 16 12 -24 -44 -30 3 -6 2 6 14 17 0 -24 -2
2 3 3 3 4 4 4 5 6 7 -6 19 15 6 -2 8 16 33 24 24 15 6 11 9 17 9 12 8 6 10 -3 13 15 13 5 2 5 5 14 5 9 -14 -7 2
2 3 3 4 4 4 5 11 22 24 13 19 16 12 6 6 11 9 8 3 4 4 7 10 8 12 12 2 5 9 9 -3 4 36 1 -1 9 6 6 7 15 20 7 6
3 2 3 4 3 3 12 19 21 15 7 10 10 10 6 9 7 22 17 12 2 9 4 10 4 -4 14 3 18 4 3 12 9 -0 15 16 37 15 17 15 11 12 13 9
3 3 4 5 3 14 22 24 16 11 2 11 12 6 13 14 -2 19 9 12 19 14 19 28 17 32 41 30 26 1 3 16 28 23 17 9 9 14 12 12 19 9 4 7
2 4 5 3 14 22 24 14 11 11 7 9 9 16 12 17 19 7 -2 23 23 9 6 1 19 14 30 23 24 31 29 21 3 -0 10 -0 0 6 10 13 14 12 11 14
5 5 5 16 24 20 13 9 10 11 10 19 -2 5 10 10 26 24 -4 -5 -5 18 18 27 10 8 -2 8 13 32 15 29 0 5 8 1 4 16 17 12 14 14 23 13
5 9 18 24 17 10 10 9 12 13 16 11 19 5 -5 -6 20 18 32 21 6 2 12 8 10 -2 15 15 24 16 23 18 5 6 9 16 14 18 17 18 2 15 18 9
12 20 21 14 10 10 10 9 14 12 17 10 18 16 13 6 12 -7 1 23 37 16 24 35 14 14 25 26 22 14 17 2 24 24 9 10 14 19 3 5 6 9 6 7
22 17 12 10 11 9 10 14 14 16 18 5 10 14 13 19 19 23 8 8 7 -1 -9 -45 6 -4 15 14 3 19 -4 20 8 5 12 8 7 10 13 10 8 11 8 7
13 12 10 9 9 11 12 16 15 21 11 17 27 15 17 12 4 5 4 9 24 -6 22 19 26 12 16 6 13 6 11 9 12 1 7 11 12 12 12 10 8 7 7 7
11 11 9 8 12 15 14 22 22 9 13 14 19 16 11 15 11 7 17 21 12 14 9 11 13 11 15 12 19 7 7 13 13 12 9 8 7 6 5 7 7 7 8 9
9 9 11 10 18 21 19 14 5 14 11 4 8 6 4 7 18 11 16 19 13 10 13 11 9 14 15 11 5 13 13 15 6 11 10 9 5 4 4 7 8 10 9 10
9 10 17 36 16 8 14 1 18 7 15 18 18 21 13 6 11 15 16 14 9 5 11 15 18 11 10 -4 14 9 7 7 9 7 9 10 11 11 10 8 9 10 11 11
12 21 29 17 16 12 15 6 21 19 19 17 20 11 12 17 16 13 17 17 17 22 11 18 17 11 11 14 11 12 6 7 8 9 8 9 9 9 8 8 9 10 11 11
24 24 9 12 4 24 24 20 15 17 16 13 12 8 12 13 15 16 13 11 13 14 21 16 8 14 14 11 12 9 9 10 10 9 10 11 10 10 9 10 9 9 10 10
20 9 6 2 25 18 14 13 13 21 18 12 12 15 12 16 9 13 8 18 11 23 11 11 15 5 2 10 11 9 10 11 11 10 11 11 11 10 10 10 10 10 11 11
3 10 -7 28 13 15 13 11 12 6 24 23 16 11 18 8 17 10 12 13 13 12 3 12 3 4 8 10 10 9 9 9 10 12 11 10 11 11 10 10 11 11 12 12
6 6 26 13 14 17 12 14 19 13 2 0 12 11 8 17 8 15 15 9 11 13 5 19 11 -10 6 10 12 11 12 11 11 10 11 11 11 12 12 11 11 10 11 12
23 22 9 15 11 10 15 8 10 14 4 13 19 16 12 13 12 16 8 12 11 9 12 14 2 3 10 10 10 11 11 12 11 12 12 11 11 11 11 12 11 11 11 10
11 7 13 7 9 2 19 8 13 15 3 15 19 5 15 10 15 10 11 12 10 6 15 10 -10 10 12 9 11 11 10 10 10 10 10 11 11 11 11 11 11 11 11 10
6 10 17 15 20 2 22 18 11 10 10 3 6 20 12 18 6 14 11 9 11 11 15 -12 13 10 11 11 10 11 12 11 12 12 12 12 12 12 12 11 12 12 12 12
3 10 10 12 6 4 11 21 21 13 9 8 18 -3 17 15 14 9 12 13 8 1 -12 10 10 11 11 12 11 12 12 12 12 12 12 12 12 12 12 11 10 11 11 11
32 47 21 17 23 14 7 9 16 29 21 14 14 13 4 11 11 13 19 10 1 -6 9 10 11 12 12 12 11 10 11 12 11 12 13 14 15 15 15 15 14 13 13 12
28 7 7 9 8 10 19 13 6 15 34 37 15 10 15 9 7 11 3 2 8 8 9 9 10 10 11 10 10 9 9 9 9 10 10 10 11 11 10 10 11 11 11 12
Height
3105 3104 3103 3101 3099 3096 3093 3089 3086 3082 3077 3075 3067 3064 3061 3059 3056 3056 3055 3052 3050 3048 3045 3043 3043 3040 3038 3037 3036 3035 3035 3033 3032 3033 3032 3032 3032 3030 3031 3031 3029 3025 3022 3016
3099 3098 3096 3094 3092 3090 3085 3082 3078 3073 3068 3065 3060 3057 3055 3052 3049 3047 3045 3044 3043 3042 3041 3041 3036 3035 3034 3033 3032 3029 3030 3027 3028 3027 3028 3026 3025 3025 3026 3026 3024 3019 3020 3013
3093 3092 3089 3087 3085 3081 3079 3075 3070 3062 3056 3054 3052 3050 3047 3045 3043 3041 3040 3037 3037 3036 3034 3034 3030 3029 3029 3028 3027 3027 3024 3020 3018 3018 3019 3020 3020 3021 3021 3020 3018 3014 3011 3009
3087 3086 3083 3080 3077 3073 3071 3065 3059 3054 3053 3048 3044 3043 3041 3038 3036 3035 3033 3029 3030 3030 3027 3026 3023 3023 3022 3022 3021 3021 3018 3012 3012 3011 3013 3013 3014 3014 3013 3013 3011 3010 3007 3005
3081 3079 3077 3073 3069 3065 3062 3059 3052 3043 3042 3040 3039 3038 3034 3032 3030 3028 3025 3023 3023 3023 3019 3019 3016 3016 3015 3014 3013 3012 3011 3009 3008 3005 3007 3007 3007 3007 3006 3006 3003 3002 3003 3000
3074 3072 3069 3065 3061 3057 3051 3046 3041 3036 3035 3033 3033 3030 3028 3025 3023 3020 3019 3017 3015 3013 3013 3012 3009 3008 3006 3004 3004 3003 3004 3003 3002 2999 3002 3002 3002 2999 2999 2998 2997 2998 2998 2997
3068 3064 3060 3056 3051 3046 3043 3038 3033 3029 3026 3026 3025 3022 3021 3018 3017 3014 3013 3012 3009 3007 3004 3002 2999 2998 2995 2995 2992 2994 2994 2996 2995 2992 2994 2997 2993 2993 2993 2993 2992 2993 2992 2991
3060 3056 3052 3047 3042 3037 3033 3030 3028 3024 3018 3019 3018 3015 3013 3010 3010 3009 3006 3005 3002 3000 2998 2996 2992 2990 2987 2986 2985 2983 2984 2988 2987 2986 2989 2990 2989 2989 2989 2988 2989 2988 2987 2988
3051 3048 3043 3038 3033 3029 3026 3023 3021 3018 3014 3012 3010 3007 3006 3004 3002 3002 2999 2999 2997 2995 2992 2990 2986 2985 2984 2982 2979 2976 2979 2980 2983 2984 2985 2988 2984 2985 2985 2985 2985 2982 2983 2983
3042 3038 3034 3029 3026 3023 3020 3017 3015 3012 3009 3004 3003 3001 3000 2999 2997 2995 2993 2992 2991 2990 2987 2986 2983 2982 2981 2979 2977 2976 2976 2976 2978 2980 2981 2983 2982 2983 2983 2986 2986 2981 2981 2980
3032 3028 3025 3023 3019 3017 3014 3012 3007 3005 3001 2998 2996 2995 2994 2993 2992 2991 2990 2988 2985 2984 2981 2979 2979 2978 2976 2975 2974 2973 2973 2975 2976 2977 2979 2982 2980 2981 2984 2982 2980 2980 2978 2978
3024 3021 3018 3015 3013 3011 3007 3004 3000 2997 2996 2993 2990 2989 2988 2987 2986 2986 2984 2984 2982 2982 2980 2977 2978 2977 2975 2974 2973 2973 2975 2975 2975 2979 2978 2978 2978 2978 2979 2978 2978 2977 2976 2974
3016 3014 3011 3008 3005 3003 3000 2995 2993 2991 2990 2987 2985 2985 2984 2983 2982 2982 2982 2980 2978 2978 2977 2976 2975 2974 2974 2973 2972 2973 2973 2974 2975 2978 2976 2976 2976 2976 2976 2976 2975 2974 2973 2971
3009 3007 3003 3000 2998 2994 2991 2990 2988 2987 2985 2984 2983 2981 2981 2980 2979 2978 2977 2976 2975 2976 2975 2974 2973 2973 2973 2972 2972 2974 2974 2974 2974 2975 2975 2976 2975 2975 2974 2974 2973 2971 2970 2968
3003 3000 2996 2991 2990 2988 2986 2984 2984 2983 2984 2982 2980 2979 2978 2977 2976 2975 2974 2973 2973 2972 2972 2972 2971 2971 2972 2972 2973 2973 2974 2974 2975 2974 2975 2974 2973 2972 2972 2971 2970 2968 2967 2965
2997 2993 2988 2985 2984 2983 2982 2982 2981 2979 2978 2978 2977 2976 2975 2975 2974 2973 2972 2971 2971 2971 2971 2970 2969 2969 2971 2971 2971 2973 2973 2973 2974 2974 2973 2972 2971 2970 2969 2968 2967 2965 2964 2962
2989 2987 2984 2983 2981 2981 2980 2980 2978 2975 2975 2975 2975 2975 2974 2973 2973 2972 2971 2970 2969 2969 2968 2968 2969 2970 2970 2970 2971 2973 2973 2973 2973 2972 2971 2970 2969 2967 2966 2965 2963 2961 2960 2958
2984 2982 2981 2980 2980 2978 2976 2974 2973 2973 2973 2974 2974 2974 2975 2974 2973 2972 2970 2969 2968 2968 2967 2968 2969 2970 2969 2971 2973 2972 2972 2971 2971 2970 2969 2967 2966 2964 2963 2961 2959 2958 2956 2955
2979 2978 2978 2978 2977 2975 2974 2973 2973 2972 2974 2973 2974 2974 2975 2974 2973 2971 2970 2969 2968 2970 2968 2969 2971 2970 2971 2974 2973 2972 2971 2970 2969 2968 2966 2964 2963 2961 2959 2958 2956 2954 2953 2951
2977 2977 2977 2976 2974 2974 2975 2974 2974 2973 2973 2973 2975 2975 2974 2975 2972 2971 2972 2970 2969 2969 2971 2971 2970 2974 2975 2974 2972 2971 2969 2968 2966 2965 2963 2961 2959 2957 2955 2953 2951 2949 2948 2946
2977 2977 2976 2976 2975 2975 2974 2974 2975 2976 2977 2978 2977 2976 2975 2974 2973 2971 2971 2970 2970 2971 2973 2972 2974 2975 2975 2973 2971 2969 2967 2965 2963 2961 2959 2957 2955 2953 2951 2949 2947 2945 2943 2941
2976 2977 2976 2977 2976 2977 2978 2978 2980 2980 2981 2981 2979 2977 2976 2975 2974 2973 2973 2972 2973 2973 2975 2974 2975 2976 2973 2971 2969 2967 2965 2963 2961 2958 2956 2954 2952 2949 2947 2945 2943 2941 2939 2936
2976 2977 2978 2979 2982 2983 2983 2985 2984 2984 2984 2982 2980 2979 2978 2976 2975 2975 2975 2974 2975 2976 2975 2976 2976 2974 2972 2970 2967 2965 2962 2960 2957 2955 2952 2950 2948 2945 2942 2940 2938 2936 2934 2931
2977 2979 2981 2985 2989 2992 2990 2988 2987 2986 2985 2984 2982 2980 2979 2978 2977 2976 2976 2978 2978 2977 2978 2978 2975 2973 2970 2968 2965 2962 2960 2957 2954 2951 2949 2946 2943 2941 2938 2935 2933 2931 2929 2927
2979 2984 2990 2995 2995 2994 2992 2989 2987 2986 2985 2984 2983 2982 2981 2979 2979 2979 2980 2980 2980 2980 2980 2977 2974 2971 2968 2965 2962 2959 2956 2953 2950 2947 2944 2941 2939 2936 2934 2931 2928 2926 2924 2922
2984 2992 2999 2999 2999 2997 2995 2993 2990 2987 2985 2985 2984 2983 2983 2983 2983 2984 2983 2984 2983 2982 2978 2975 2972 2969 2965 2962 2959 2956 2953 2949 2946 2943 2940 2937 2934 2931 2928 2926 2923 2920 2918 2916
2997 3001 3003 3003 3001 3000 2998 2996 2994 2991 2988 2986 2986 2986 2987 2989 2989 2988 2987 2986 2983 2979 2976 2973 2969 2966 2962 2959 2956 2953 2949 2946 2942 2939 2936 2932 2929 2926 2923 2920 2918 2915 2912 2909